カタリナ彗星

P/2005 JQ5 ( Catalina ) 2009

English version
Home page
Updated on April 4, 2010

---------------------------------------------------------------------

・ プロフィール

・ 軌道要素

The following orbital elements are taken from MPC 56805:

Epoch 2010 Jan. 4.0 TT = JDT 2455200.5
T 2009 Dec. 28.8497 TT                                  MPC
q   0.823087             (2000.0)            P               Q
n   0.2231604      Peri.  222.7430      +0.7464933      +0.6580281
a   2.691894       Node    95.8324      -0.5805581      +0.7166050
e   0.694235       Incl.    5.6954      -0.3251154      +0.2312494
P   4.42
From 588 observations 2005 May 6-Dec. 29, mean residual 0".6.

・ 星図

・ 光度変化

        H = 17.5  G = 0.15                [   ,-73]  (              〜2009年10月16日)
        m1 = 16.0 + 5 logΔ + 23.0 log r  [-73, 85]  (2009年10月16日〜2010年 3月23日)
        H = 17.5  G = 0.15                [ 85,   ]  (2010年 3月23日〜              )

---------------------------------------------------------------------

軌道要素はMPCのEphemerides and Orbital Elementsに掲載されたものです。
星図はステラナビゲータ Ver.8 (アストロアーツ) で作成したものです。
光度グラフはComet for Windowsで作成したものです。

---------------------------------------------------------------------

Copyright(C) Seiichi Yoshida (comet@aerith.net). All rights reserved.